[[{"header":{"parameterUnit":"m.s-1","parameterCategory":1,"la1":30.2991,"la2":30.254,"lo1":-89.0895,"lo2":-89.0444,"dy":0.0017,"dx":0.0017,"nx":28,"ny":28,"refTime":"2023-10-30T21:00:00:Z","depth":0,"parameterNumber":2,"parameterNumberName":"U-component_of_WINDS"},"data":[0,0,0,0,0,0,0,0,0,0,0,0,0,0,0,0,0,0,0,0,0,0,0,0,0,0,0,0,0,0,0,0,0,0,0,0,0,0,0,0,0,0,0,0,0,0,0,0,0,0,0,0,0,0,0,0,0,0,0.1463,0.1462,0,0.1401,0.1401,0.14,0.1393,0.1394,0.1394,0.1395,0.1329,0.1327,0.1325,0,0,0,0,0,0,0,0,0,0,0,0,0,0.1574,0.1572,0.1463,0.1462,0.1461,0.1401,0.14,0.14,0.1393,0.1394,0.1394,0.1395,0.133,0.1327,0.1325,0,0,0,0,0,0,0,0,0,0,0,0,0,0.1521,0.1572,0.1463,0.1451,0.1449,0.1402,0.14,0.1399,0.1393,0.1394,0.1395,0.1395,0.1331,0.1328,0.1324,0.1284,0,0,0.1314,0.1312,0,0,0,0,0,0,0,0,0.1524,0.1516,0.1453,0.1452,0.145,0.1406,0.1416,0.1361,0.1392,0.1414,0.1395,0.1396,0.1354,0.1349,0.1335,0.1281,0.1278,0.1313,0.1311,0.131,0.1309,0,0,0,0,0,0,0,0.1527,0.1519,0.1438,0.1453,0.145,0.1448,0.1442,0.1405,0.1379,0.1412,0.1412,0.1404,0.1353,0.1338,0.1333,0.1277,0.1313,0.131,0.1308,0.1307,0.1188,0.1187,0,0,0,0,0,0,0.1534,0.1522,0.144,0.1437,0.149,0.1445,0.1438,0.1419,0.138,0.1375,0.1404,0.1404,0.1344,0.1337,0.1331,0.1281,0.131,0.1306,0.1304,0.1189,0.1188,0.1187,0,0,0,0,0,0,0.1536,0.1526,0.1443,0.1479,0.1469,0.1443,0.1421,0.1417,0.1402,0.1373,0.1369,0.1393,0.1344,0.1336,0.1296,0.1279,0.1305,0.1302,0.119,0.1189,0.1187,0.1182,0,0,0,0,0,0,0.1539,0.1527,0.1512,0.1479,0.1467,0.1409,0.142,0.1415,0.1397,0.1397,0.1362,0.1358,0.1344,0.1301,0.1293,0.1275,0.1299,0.1192,0.119,0.1188,0.1183,0.118,0.1178,0,0,0,0,0,0.1543,0.1512,0.1511,0.1501,0.1447,0.1408,0.1401,0.1387,0.1395,0.1379,0.1361,0.1359,0.1283,0.1297,0.1287,0.1268,0.1193,0.119,0.1188,0.1185,0.1181,0.1178,0,0,0,0,0,0,0.1542,0.1507,0.1506,0.1463,0.1439,0.1407,0.1386,0.1383,0.1355,0.1357,0.134,0.1332,0.1293,0.1277,0.1294,0.1228,0.1239,0.1234,0.1239,0.1236,0.1233,0.1237,0.1296,0,0,0,0,0,0.1537,0.1509,0.148,0.1445,0.1433,0.1412,0.1395,0.1386,0.136,0.135,0.1328,0.1303,0.1273,0.1254,0.1225,0.1182,0.1174,0.1164,0.1161,0.1159,0.1155,0.1131,0.1126,0.1179,0.1179,0.1179,0,0,0.1526,0.1503,0.1486,0.1445,0.1425,0.1396,0.1403,0.1372,0.1351,0.1345,0.1306,0.129,0.126,0.1219,0.1199,0.1204,0.1139,0.1156,0.1154,0.1151,0.1128,0.1123,0.1119,0.1177,0.1178,0.1178,0,0,0.149,0.1471,0.144,0.142,0.1391,0.1377,0.137,0.1339,0.1329,0.129,0.1285,0.1259,0.1208,0.1188,0.117,0.113,0.1127,0.1121,0.1105,0.1083,0.1078,0.1075,0.106,0.1055,0.1117,0.1117,0.1117,0,0.148,0.1436,0.1424,0.1394,0.1375,0.137,0.1339,0.132,0.1283,0.127,0.1276,0.1213,0.1193,0.1147,0.1137,0.1124,0.1115,0.1124,0.108,0.1076,0.1073,0.1058,0.1053,0.1117,0.1117,0.1117,0.1117,0,0.1425,0.1395,0.1374,0.1339,0.1318,0.1287,0.127,0.1251,0.1245,0.1231,0.1192,0.1168,0.1135,0.1124,0.1117,0.1077,0.1081,0.1084,0.1094,0.1067,0.1053,0.1048,0.1116,0.1116,0.1116,0.1117,0,0,0.1384,0.1345,0.1337,0.1321,0.1289,0.1266,0.1236,0.1204,0.1188,0.1163,0.1136,0.1095,0.1098,0.1079,0.107,0.105,0.102,0.1056,0.1055,0.105,0.0974,0.0971,0.0965,0.1019,0.1017,0.1017,0.0977,0,0.1345,0.129,0.128,0.1232,0.1205,0.1201,0.1174,0.1152,0.1139,0.1113,0.1099,0.1069,0.1076,0.1064,0.1045,0.1028,0.1004,0.1031,0.0993,0.0992,0.0999,0.0958,0.0954,0.0917,0.0971,0.097,0.097,0,0.1291,0.1265,0.1216,0.1189,0.1177,0.1153,0.1124,0.11,0.1075,0.1067,0.1046,0.104,0.1009,0.1022,0.0978,0.0996,0.0981,0.097,0.0969,0.0963,0.0978,0.0951,0.0905,0.0899,0.0961,0.0962,0.0962,0,0.1266,0.1219,0.1184,0.1171,0.1138,0.1122,0.1108,0.1084,0.1066,0.104,0.1029,0.1,0.0983,0.0961,0.0948,0.0959,0.0905,0.0917,0.0897,0.0897,0.0884,0.0885,0.0835,0.0876,0.0876,0.0876,0.0876,0,0.1222,0.1191,0.1172,0.115,0.1116,0.1104,0.1071,0.1057,0.1036,0.1011,0.1007,0.0983,0.0968,0.0942,0.0932,0.0897,0.089,0.0882,0.0879,0.0882,0.0883,0.087,0.0872,0.0875,0.0875,0.0875,0.0876,0,0.1187,0.1173,0.1134,0.1107,0.11,0.1076,0.1053,0.1032,0.102,0.0988,0.098,0.0961,0.0931,0.0916,0.0878,0.0872,0.0832,0.0832,0.0841,0.0839,0.082,0.0821,0.0758,0.075,0.0798,0.0798,0.0797,0,0.1159,0.1136,0.1107,0.1091,0.1076,0.105,0.1032,0.102,0.1002,0.0973,0.0955,0.0925,0.09,0.0853,0.0835,0.0807,0.0805,0.0785,0.08,0.0804,0.0804,0.0805,0.0802,0.0781,0.0781,0.0781,0.078,0,0.1111,0.1106,0.108,0.1053,0.1032,0.101,0.0988,0.0975,0.096,0.094,0.0909,0.0891,0.0853,0.0824,0.0795,0.078,0.0777,0.0776,0.077,0.0771,0.0777,0.0773,0.0832,0.0777,0.0777,0.0778,0.0778,0.0778,0.1078,0.1057,0.1034,0.1007,0.099,0.097,0.0949,0.0935,0.0909,0.0878,0.0874,0.0842,0.0819,0.0779,0.0764,0.0739,0.0743,0.0734,0.0731,0.0729,0.0728,0.0783,0.0734,0.0734,0.0734,0.0734,0.0734,0,0.1029,0.1015,0.099,0.096,0.0938,0.094,0.0916,0.0898,0.087,0.0849,0.0826,0.0792,0.0764,0.0745,0.0716,0.07,0.0698,0.0693,0.0693,0.069,0.0726,0.0734,0.0695,0.0695,0.0695,0.0695,0.0695,0.0695,0.1001,0.0966,0.0958,0.0916,0.0902,0.0871,0.0857,0.0839,0.0822,0.0785,0.0762,0.075,0.073,0.0701,0.0675,0.067,0.066,0.0654,0.0649,0.0683,0.0687,0.0691,0.0698,0.0652,0.0652,0.0615,0.0615,0.0614]},{"header":{"parameterUnit":"m.s-1","parameterCategory":1,"la1":30.2991,"la2":30.254,"lo1":-89.0895,"lo2":-89.0444,"dy":0.0017,"dx":0.0017,"nx":28,"ny":28,"refTime":"2023-10-30T21:00:00:Z","depth":0,"parameterNumber":3,"parameterNumberName":"V-component_of_WINDS"},"data":[0,0,0,0,0,0,0,0,0,0,0,0,0,0,0,0,0,0,0,0,0,0,0,0,0,0,0,0,0,0,0,0,0,0,0,0,0,0,0,0,0,0,0,0,0,0,0,0,0,0,0,0,0,0,0,0,0,0,-8.0915,-8.0916,0,-8.1033,-8.1034,-8.1035,-8.0965,-8.0962,-8.0959,-8.0955,-8.1069,-8.1075,-8.1081,0,0,0,0,0,0,0,0,0,0,0,0,0,-8.0621,-8.0627,-8.0914,-8.0916,-8.0918,-8.1033,-8.1034,-8.1036,-8.0966,-8.0962,-8.0958,-8.0954,-8.1067,-8.1075,-8.1082,0,0,0,0,0,0,0,0,0,0,0,0,0,-8.0745,-8.0629,-8.0914,-8.0897,-8.0896,-8.1032,-8.1034,-8.1036,-8.0967,-8.0962,-8.0957,-8.0952,-8.1065,-8.1074,-8.1083,-8.1241,0,0,-8.1111,-8.1115,0,0,0,0,0,0,0,0,-8.0738,-8.0756,-8.0898,-8.0898,-8.0898,-8.0979,-8.0972,-8.1104,-8.0968,-8.094,-8.0955,-8.0949,-8.1043,-8.1054,-8.1087,-8.1246,-8.1251,-8.1112,-8.1118,-8.1122,-8.1124,0,0,0,0,0,0,0,-8.073,-8.075,-8.0961,-8.09,-8.09,-8.0881,-8.0893,-8.0997,-8.1018,-8.0942,-8.0937,-8.0952,-8.1042,-8.1078,-8.1089,-8.1252,-8.1112,-8.112,-8.1126,-8.1129,-8.1546,-8.1551,0,0,0,0,0,0,-8.0723,-8.0744,-8.0957,-8.0965,-8.0804,-8.089,-8.0903,-8.0958,-8.1017,-8.1021,-8.0957,-8.0949,-8.1065,-8.1078,-8.1092,-8.1281,-8.1121,-8.113,-8.1135,-8.1541,-8.1547,-8.1553,0,0,0,0,0,0,-8.0717,-8.0743,-8.0952,-8.0853,-8.0878,-8.09,-8.0962,-8.0963,-8.0999,-8.1028,-8.103,-8.099,-8.1061,-8.1079,-8.1205,-8.1284,-8.1134,-8.1143,-8.1534,-8.1543,-8.155,-8.1659,0,0,0,0,0,0,-8.0709,-8.0741,-8.0803,-8.0855,-8.0884,-8.1065,-8.0967,-8.0969,-8.1016,-8.1007,-8.106,-8.1064,-8.1059,-8.1191,-8.1214,-8.1294,-8.115,-8.1527,-8.1538,-8.1548,-8.1648,-8.167,-8.1688,0,0,0,0,0,-8.0699,-8.0827,-8.0807,-8.0833,-8.0962,-8.107,-8.1086,-8.108,-8.1023,-8.1084,-8.1102,-8.1062,-8.1272,-8.1205,-8.123,-8.1313,-8.1522,-8.1535,-8.1547,-8.1639,-8.1666,-8.1688,0,0,0,0,0,0,-8.0781,-8.0834,-8.0811,-8.0961,-8.1012,-8.1058,-8.1135,-8.1108,-8.1174,-8.1162,-8.1149,-8.1162,-8.1292,-8.1315,-8.124,-8.1469,-8.1388,-8.1406,-8.1449,-8.1474,-8.1494,-8.1485,-8.1158,0,0,0,0,0,-8.0818,-8.0904,-8.0943,-8.1071,-8.1098,-8.1113,-8.1159,-8.115,-8.1201,-8.1222,-8.1249,-8.1299,-8.1375,-8.1426,-8.1498,-8.1651,-8.1661,-8.1721,-8.1741,-8.1757,-8.1773,-8.1855,-8.1881,-8.1594,-8.1594,-8.1594,0,0,-8.0892,-8.0931,-8.0986,-8.1089,-8.1127,-8.1214,-8.1131,-8.1226,-8.129,-8.1235,-8.1356,-8.1378,-8.1432,-8.1572,-8.1635,-8.1595,-8.1854,-8.1773,-8.1786,-8.1793,-8.187,-8.1897,-8.1922,-8.1603,-8.1601,-8.16,0,0,-8.1072,-8.1111,-8.1222,-8.1263,-8.1323,-8.1332,-8.1359,-8.141,-8.1423,-8.1544,-8.1505,-8.1579,-8.1712,-8.1752,-8.179,-8.1986,-8.1951,-8.201,-8.2114,-8.2194,-8.2216,-8.2236,-8.2306,-8.2331,-8.2025,-8.2025,-8.2026,0,-8.1157,-8.1289,-8.1282,-8.1382,-8.1427,-8.1384,-8.1495,-8.1534,-8.1614,-8.1646,-8.16,-8.1767,-8.18,-8.1948,-8.1996,-8.2029,-8.2057,-8.2003,-8.2214,-8.2234,-8.2253,-8.2319,-8.2345,-8.2032,-8.2031,-8.2031,-8.203,0,-8.1389,-8.1481,-8.1563,-8.1644,-8.1699,-8.1804,-8.1811,-8.1867,-8.1853,-8.1866,-8.1989,-8.2028,-8.2107,-8.2142,-8.2128,-8.2289,-8.2262,-8.2216,-8.2134,-8.2287,-8.2349,-8.2374,-8.2042,-8.2039,-8.2037,-8.2036,0,0,-8.1624,-8.1702,-8.1732,-8.1768,-8.1831,-8.1901,-8.2003,-8.2083,-8.2131,-8.2187,-8.2271,-8.2385,-8.2343,-8.2386,-8.2376,-8.2447,-8.2599,-8.2392,-8.2393,-8.2429,-8.2777,-8.2811,-8.2841,-8.2577,-8.2581,-8.2585,-8.2773,0,-8.1808,-8.199,-8.1987,-8.2154,-8.2238,-8.2198,-8.2287,-8.2334,-8.2349,-8.242,-8.2435,-8.2516,-8.2455,-8.2481,-8.2549,-8.2566,-8.2669,-8.2553,-8.2653,-8.2656,-8.2641,-8.2873,-8.291,-8.3085,-8.2797,-8.2801,-8.2804,0,-8.2048,-8.2115,-8.2291,-8.2343,-8.2378,-8.2458,-8.2531,-8.2601,-8.2652,-8.2658,-8.2707,-8.2686,-8.2787,-8.2703,-8.2841,-8.2763,-8.2803,-8.2818,-8.2825,-8.2833,-8.2739,-8.2888,-8.314,-8.3166,-8.2842,-8.2839,-8.2836,0,-8.2201,-8.2335,-8.2458,-8.249,-8.2553,-8.2611,-8.2639,-8.2686,-8.2735,-8.2798,-8.2829,-8.2902,-8.2941,-8.2997,-8.2996,-8.2935,-8.3136,-8.3052,-8.3142,-8.3142,-8.3185,-8.3183,-8.3448,-8.3213,-8.3212,-8.3212,-8.3211,0,-8.2407,-8.2516,-8.2528,-8.2604,-8.2724,-8.2719,-8.2838,-8.286,-8.2903,-8.298,-8.2949,-8.3022,-8.3016,-8.3089,-8.3088,-8.3203,-8.3221,-8.3227,-8.3225,-8.323,-8.3229,-8.3255,-8.3243,-8.3219,-8.3217,-8.3216,-8.3215,0,-8.2599,-8.2612,-8.2743,-8.2793,-8.2808,-8.2894,-8.2935,-8.3006,-8.3018,-8.3117,-8.3139,-8.3158,-8.3242,-8.3247,-8.3343,-8.3342,-8.3481,-8.3466,-8.3465,-8.3462,-8.3551,-8.3543,-8.3842,-8.3881,-8.3621,-8.3624,-8.3626,0,-8.2729,-8.2813,-8.2872,-8.2924,-8.2956,-8.3038,-8.3088,-8.3085,-8.3138,-8.3204,-8.3266,-8.3348,-8.3414,-8.355,-8.357,-8.3644,-8.363,-8.373,-8.364,-8.3642,-8.3631,-8.3626,-8.3634,-8.3747,-8.375,-8.3752,-8.3754,0,-8.2959,-8.2962,-8.3036,-8.3114,-8.3175,-8.3235,-8.329,-8.3333,-8.3336,-8.3397,-8.3484,-8.3535,-8.3635,-8.3716,-8.3788,-8.3814,-8.3785,-8.3782,-8.3807,-8.3812,-8.3808,-8.3811,-8.3512,-8.3775,-8.3773,-8.3772,-8.377,-8.377,-8.3124,-8.3197,-8.325,-8.3334,-8.3376,-8.3429,-8.3498,-8.352,-8.3594,-8.3677,-8.367,-8.3766,-8.3815,-8.3909,-8.3941,-8.4015,-8.398,-8.4016,-8.4025,-8.4034,-8.4043,-8.3797,-8.4027,-8.4027,-8.4026,-8.4026,-8.4025,0,-8.3352,-8.3385,-8.3463,-8.3543,-8.3609,-8.3578,-8.3638,-8.3694,-8.378,-8.383,-8.3895,-8.3995,-8.4074,-8.4101,-8.4177,-8.4231,-8.4219,-8.4251,-8.4246,-8.4253,-8.407,-8.4041,-8.4259,-8.4259,-8.4259,-8.4259,-8.4259,-8.4259,-8.3479,-8.36,-8.3609,-8.375,-8.3781,-8.3877,-8.3914,-8.3962,-8.4002,-8.4116,-8.4182,-8.42,-8.424,-8.4318,-8.4388,-8.4394,-8.4423,-8.446,-8.446,-8.4289,-8.4265,-8.4243,-8.4216,-8.4467,-8.4467,-8.4637,-8.4639,-8.464]}]]